Hourly Data Report for October 04, 2017

All times are specified in Local Standard Time (LST). Add 1 hour to adjust for Daylight Saving Time where and when it is observed.

THOMPSON A
MANITOBA

55°48'17.000" N
97°51'45.000" W
224.00 m
5062921
71079
YTH

Download Data

Hourly Data (October 2017)
Hourly Data Report for October 4, 2017
Temp Definition
°C
Dew Point Temp Definition
°C
Rel Hum Definition
%
Wind Dir Definition
10's deg

Wind Spd Definition
km/h
Visibility Definition
km
Stn Press Definition
kPa
Hmdx Definition


Wind Chill Definition


Weather Definition


TIME
00:00 Legend Double Dagger 4.6 -0.6 69 21 18 24.1 98.77     Mostly Cloudy
01:00 Legend Double Dagger 4.3 -0.7 70 21 18 24.1 98.65     LegendNANA
02:00 Legend Double Dagger 4.4 -0.7 69 20 16 24.1 98.48     LegendNANA
03:00 Legend Double Dagger 4.5 -1.0 68 22 20 24.1 98.32     Mostly Cloudy
04:00 Legend Double Dagger 4.8 -0.5 69 22 18 24.1 98.23     LegendNANA
05:00 Legend Double Dagger 4.8 -0.1 71 23 14 24.1 98.18     LegendNANA
06:00 Legend Double Dagger 4.9 0.3 72 24 16 24.1 98.14     Cloudy
07:00 Legend Double Dagger 5.5 0.8 72 26 16 24.1 98.14     LegendNANA
08:00 Legend Double Dagger 6.1 1.6 73 27 13 24.1 98.17     LegendNANA
09:00 Legend Double Dagger 7.3 2.3 70 29 14 24.1 98.20     Mostly Cloudy
10:00 Legend Double Dagger 7.1 2.3 71 32 21 24.1 98.27     Rain Showers
11:00 Legend Double Dagger 8.1 2.0 65 32 28 24.1 98.38     Rain Showers
12:00 Legend Double Dagger 6.9 2.5 74 34 28 24.1 98.51     Rain Showers
13:00 Legend Double Dagger 6.0 0.3 67 34 27 24.1 98.65     LegendNANA
14:00 Legend Double Dagger 5.5 -0.5 65 36 23 24.1 98.73     LegendNANA
15:00 Legend Double Dagger 6.3 -0.2 63 1 23 24.1 98.81     Mostly Cloudy
16:00 Legend Double Dagger 6.4 -3.4 50 34 19 24.1 98.85     LegendNANA
17:00 Legend Double Dagger 5.7 -4.7 47 34 13 24.1 98.91     LegendNANA
18:00 Legend Double Dagger 3.0 -4.0 60 35 12 24.1 98.96     Clear
19:00 Legend Double Dagger 0.4 -4.4 70 35 6 24.1 99.00     LegendNANA
20:00 Legend Double Dagger -3.1 -4.9 87 33 7 24.1 99.02   -6 LegendNANA
21:00 Legend Double Dagger -2.4 -5.2 81 30 6 24.1 99.03   -5 Mainly Clear
22:00 Legend Double Dagger -3.2 -5.4 85 30 8 24.1 99.03   -6 LegendNANA
23:00 Legend Double Dagger -3.2 -5.4 85 31 9 24.1 99.04   -7 LegendNANA

Notes on Data Quality.

Legend

  • E = Estimated
  • M = Missing
  • NA = Not Available
  • ‡ = Partner data that is not subject to review by the National Climate Archives
Date modified: